Temperature
22 24 23 23 23 23 23 22 22 22 22 22 22 22 22 21 20 20 20 19 19 19 18 18 17 17 17 17 17 17 16 16 16 15 15 15 15 15 15 15 15 14 14 14
23 23 23 23 22 22 22 22 22 22 22 22 22 22 22 21 21 20 20 20 19 19 19 18 17 17 17 17 17 17 16 16 16 15 15 15 15 15 15 15 15 15 14 14
23 23 23 22 22 22 22 22 22 22 22 22 22 22 22 22 21 20 19 19 19 18 19 18 17 17 17 17 17 17 16 16 16 15 15 15 15 15 15 15 15 15 14 14
22 23 22 22 22 22 22 22 22 22 22 22 22 22 22 22 21 21 20 19 18 18 18 18 17 17 17 17 17 16 16 16 16 16 15 15 15 15 15 15 15 15 14 14
22 22 22 22 22 22 22 22 22 22 22 22 22 22 23 22 21 21 20 19 18 18 18 17 17 17 17 17 16 16 16 16 16 16 15 15 15 15 15 15 15 15 14 14
22 22 22 22 22 22 22 22 22 22 22 21 22 22 22 22 21 21 20 19 18 18 17 17 17 16 16 16 16 16 16 16 16 16 15 15 15 15 15 15 15 15 14 14
22 22 22 22 22 22 22 22 21 21 21 21 22 21 22 21 21 20 20 19 18 17 17 17 17 16 16 16 16 16 16 16 16 15 15 15 15 15 15 15 15 14 14 14
21 21 22 22 22 22 22 22 21 21 21 21 21 21 22 21 20 19 18 18 17 17 17 16 16 16 16 16 16 16 16 16 15 15 15 15 15 15 15 15 14 14 15 15
22 21 22 21 21 22 22 22 22 22 21 21 21 21 21 21 20 19 18 17 17 17 16 16 16 16 16 16 16 16 16 16 15 15 15 15 15 15 15 15 14 14 14 14
22 21 21 21 21 21 22 22 21 21 20 20 21 21 21 20 20 19 19 17 17 16 16 15 15 15 15 15 15 15 15 15 15 15 15 15 15 15 15 15 14 14 14 14
21 21 21 21 21 21 21 21 21 21 21 20 20 21 21 20 20 19 19 17 16 16 15 15 15 15 15 15 15 15 15 15 15 15 15 15 15 15 15 14 14 14 14 14
20 21 21 21 21 20 21 21 21 21 20 20 20 21 20 20 19 18 18 17 16 15 15 15 15 15 15 15 15 15 15 15 15 15 15 15 15 15 14 14 14 14 14 14
20 21 21 21 20 20 20 20 20 21 21 20 20 20 20 19 19 18 17 16 16 15 15 15 14 14 14 14 14 14 14 14 15 15 15 15 14 14 14 14 14 14 14 14
19 21 20 20 21 20 20 19 19 20 20 20 20 20 20 19 19 18 17 16 16 15 15 14 14 14 14 14 14 14 14 14 14 14 14 14 14 14 14 14 14 14 14 13
19 20 20 20 19 19 19 19 19 19 20 20 20 20 20 20 19 18 17 16 15 15 14 14 14 14 14 14 13 13 13 14 14 14 14 14 14 14 14 13 13 13 13 13
19 19 19 19 19 19 19 19 19 19 19 19 19 19 20 18 18 17 17 16 15 15 14 14 14 13 13 13 13 13 13 13 13 13 13 13 13 13 13 13 13 13 13 13
18 19 19 19 19 18 18 19 19 18 19 19 19 19 19 18 17 17 16 16 15 14 14 14 13 13 13 13 13 13 13 13 13 13 13 13 13 13 13 12 12 12 12 12
18 18 18 19 18 18 19 19 18 18 18 18 18 18 18 18 17 16 15 15 15 14 14 13 13 13 13 12 12 12 12 12 12 12 12 12 12 12 12 12 12 12 11 12
17 18 18 18 18 18 18 18 18 18 18 18 18 18 17 16 16 16 15 14 14 13 13 13 13 12 12 12 12 12 12 12 12 12 11 12 12 11 11 11 11 11 11 11
16 17 18 17 17 18 18 18 17 17 18 18 17 17 16 16 17 17 15 14 13 13 13 12 12 12 12 12 12 11 11 11 11 11 11 11 11 11 11 11 11 11 11 11
16 16 16 17 17 18 18 16 16 17 18 17 16 16 16 16 17 15 14 13 13 12 12 12 12 11 11 11 11 11 11 11 11 10 10 10 10 10 10 10 10 10 10 10
17 16 16 17 17 17 16 16 17 17 16 15 15 15 15 15 14 14 13 13 12 12 12 11 11 11 11 11 10 10 10 10 10 10 10 10 10 10 10 10 10 10 10 10
16 17 17 17 17 16 15 15 15 15 15 15 14 14 14 13 13 13 12 12 12 11 11 11 11 10 10 10 10 10 10 10 9 9 9 9 9 9 9 9 9 9 9 9
16 14 15 16 16 15 14 14 13 14 14 14 13 13 13 13 12 12 12 12 11 11 11 11 10 10 10 10 10 9 9 9 9 9 9 9 9 9 9 9 9 9 9 8
15 14 15 15 16 14 14 13 13 13 13 13 13 12 12 12 12 12 11 11 11 10 10 10 10 10 10 9 9 9 9 9 8 8 8 8 8 8 8 8 8 8 8 8
14 14 15 16 15 15 15 13 13 13 13 12 12 12 12 11 11 11 11 10 10 10 10 10 9 9 9 9 9 9 8 8 8 8 8 8 7 7 7 7 8 8 8 8
Wind_Speed
2 4 3 2 2 2 1 2 3 2 1 3 4 4 4 4 4 4 4 5 5 6 6 7 7 6 5 5 5 5 5 5 5 4 4 3 3 3 2 2 3 3 3 3
5 4 2 1 2 2 3 3 3 2 1 3 4 5 4 4 5 5 4 4 5 5 6 7 7 7 6 6 6 5 5 5 6 4 4 3 3 2 2 2 3 3 3 3
5 1 2 3 4 4 5 5 4 3 2 3 4 4 3 3 3 3 3 3 3 4 6 7 7 8 7 6 6 5 5 6 6 5 4 4 3 3 3 3 2 2 3 3
4 2 4 4 5 5 5 3 4 5 5 3 3 4 2 2 2 2 3 3 3 3 4 6 7 7 7 6 6 6 6 6 6 6 5 5 4 4 3 3 3 3 3 3
3 3 4 6 5 5 3 1 3 5 6 6 5 5 1 1 2 2 1 2 3 3 3 4 5 6 5 6 6 6 6 6 6 7 6 6 4 3 3 3 3 3 3 3
3 2 3 3 2 3 3 3 4 5 6 6 4 5 2 0 2 2 1 1 2 2 3 3 4 4 4 4 4 5 6 6 6 7 7 7 6 5 4 4 4 4 3 3
3 3 2 2 3 4 5 5 3 4 4 3 1 4 1 3 3 3 2 0 1 2 3 3 3 3 3 4 4 5 6 6 7 7 7 7 6 6 5 5 4 4 3 3
4 4 3 3 4 4 5 6 5 3 3 2 2 3 1 4 3 2 2 2 2 2 2 2 3 3 4 4 4 5 5 5 6 6 6 6 6 4 4 4 4 4 3 4
3 3 2 2 2 4 4 5 5 6 6 5 3 2 2 3 3 4 4 4 4 3 2 2 2 3 3 4 4 5 5 5 5 5 5 5 5 5 4 4 4 4 4 3
4 4 3 2 3 1 3 3 4 5 4 5 4 5 2 1 2 3 4 3 3 2 3 2 2 2 2 2 3 4 4 4 4 5 5 4 5 5 4 4 4 4 4 4
5 5 4 4 4 5 4 5 5 5 5 5 4 1 1 0 0 1 2 3 2 2 2 2 2 2 2 2 2 2 3 3 3 4 5 5 5 5 5 4 4 4 4 5
3 4 5 4 1 2 5 5 7 6 6 6 6 2 3 1 1 1 2 2 2 2 2 2 2 2 2 1 1 1 1 2 3 3 4 5 5 5 5 5 5 5 5 5
2 4 5 5 5 4 4 4 6 6 6 7 8 3 4 2 2 1 1 1 2 2 2 2 2 2 1 1 1 1 1 1 1 2 3 3 4 4 5 5 5 5 5 5
4 6 7 7 4 2 5 5 6 8 8 8 9 8 4 2 2 1 1 0 1 1 2 2 1 1 1 1 0 0 1 1 1 1 2 2 3 3 4 4 4 4 4 5
4 7 7 7 5 5 7 8 8 10 11 11 10 9 8 5 4 3 2 2 1 1 1 1 0 1 1 1 1 1 1 1 1 1 1 2 2 2 3 3 4 4 4 4
4 6 7 8 6 7 9 10 10 11 10 11 11 10 6 4 4 4 3 3 2 1 1 1 1 1 1 1 1 1 1 0 1 1 2 2 2 2 2 2 3 3 4 4
4 5 7 8 6 7 9 8 9 9 9 10 11 8 4 4 4 4 4 4 3 2 1 1 2 2 2 2 2 1 1 1 1 1 1 2 2 2 2 2 3 3 4 4
6 7 6 6 6 9 2 0 4 7 8 8 8 6 6 5 4 4 4 3 3 2 2 2 3 3 3 2 2 1 1 1 1 2 2 2 2 2 2 2 3 4 4 4
6 7 6 6 8 8 4 3 3 6 7 6 7 6 5 4 4 4 4 3 3 2 2 2 3 3 3 2 2 2 2 2 2 2 3 3 3 3 3 3 4 4 4 4
3 6 7 7 8 7 2 2 2 5 6 3 5 5 4 5 6 3 2 2 2 1 1 2 2 2 2 2 2 3 2 2 3 3 4 3 3 3 3 3 3 3 4 4
5 5 8 10 9 6 1 1 4 6 2 0 3 3 4 5 4 1 1 2 1 1 1 1 2 2 2 2 2 3 2 2 3 3 3 4 3 4 4 3 3 3 4 4
6 6 7 7 8 6 2 4 5 3 2 1 3 3 4 4 2 1 1 1 1 2 2 2 2 2 2 2 3 3 3 3 3 3 3 3 3 3 3 3 3 3 4 4
7 6 5 6 5 2 3 4 3 3 3 3 3 3 3 3 3 2 2 2 2 2 2 3 3 3 2 2 3 4 3 3 3 3 3 3 4 3 4 4 3 3 3 3
5 4 5 6 7 5 5 5 5 5 5 4 4 3 3 4 4 4 3 3 3 3 3 3 3 3 3 3 3 3 3 3 4 4 4 3 4 4 3 3 3 3 3 4
5 5 6 9 7 6 6 6 5 5 4 3 3 3 3 4 4 5 4 4 4 3 3 3 4 4 4 3 3 3 3 4 4 4 4 4 4 4 4 3 3 4 3 3
6 7 7 7 6 6 5 4 5 5 4 4 4 3 4 4 5 5 5 4 4 4 4 4 4 5 4 4 4 3 3 4 4 4 4 3 3 3 3 3 3 2 3 2
Wind_Direction
181 204 204 214 249 296 231 257 271 286 257 253 260 267 251 228 226 240 235 227 223 220 208 195 191 187 187 190 193 185 184 179 169 170 177 176 178 179 167 159 162 154 159 146
188 209 219 187 170 214 223 246 269 289 271 265 275 275 258 234 233 242 242 232 228 219 200 193 193 187 190 192 194 188 191 183 180 182 183 183 177 179 162 151 158 165 168 164
218 192 151 182 202 229 239 253 265 280 286 244 271 259 224 202 219 241 246 240 239 225 209 197 196 194 192 196 194 191 192 187 187 184 177 166 165 175 171 171 171 180 189 183
227 216 200 217 232 242 257 265 256 257 261 265 253 282 216 213 228 243 240 222 221 210 206 197 197 198 198 198 195 191 190 191 190 188 187 187 187 185 185 180 173 180 184 190
209 212 226 240 250 242 266 268 247 250 259 265 246 265 258 186 260 264 235 208 209 197 191 191 194 195 197 195 194 193 188 191 191 191 191 201 199 192 182 177 178 185 185 192
231 222 245 259 249 216 197 209 228 234 248 256 254 254 275 57 316 329 287 199 195 192 179 172 169 172 176 179 185 186 187 188 189 193 199 202 199 196 188 192 192 197 198 199
213 207 207 218 203 187 221 242 251 233 227 246 171 248 279 27 356 330 319 228 174 161 162 155 152 161 164 171 178 179 182 188 190 194 203 205 206 207 209 209 210 212 210 208
233 221 199 214 236 236 229 250 263 279 271 262 210 246 83 47 27 26 54 84 102 116 139 144 143 156 166 165 170 176 174 184 190 195 202 206 205 212 222 221 221 219 222 218
243 228 164 202 242 245 235 240 272 275 274 272 245 213 151 89 65 69 79 85 85 89 111 127 130 137 149 155 162 171 175 179 188 196 196 199 202 208 218 222 225 223 221 217
264 252 220 187 190 187 269 233 230 247 267 258 249 242 242 135 72 77 82 80 74 72 78 97 120 132 137 145 155 165 176 184 192 195 197 201 209 211 217 221 222 227 228 219
255 246 220 202 224 233 209 216 236 248 261 274 269 239 49 250 124 104 87 75 68 67 80 92 110 127 132 130 134 156 187 199 200 201 204 206 207 211 216 218 221 225 227 224
243 253 246 235 211 291 250 244 239 251 253 257 273 274 89 109 124 122 91 73 74 67 85 101 101 107 115 130 151 167 193 215 217 211 214 217 209 206 216 221 221 221 224 223
233 245 246 221 198 197 224 236 245 256 259 254 257 243 120 127 143 129 107 84 75 72 89 98 91 85 83 97 164 179 191 234 228 212 215 216 218 215 221 227 226 223 223 220
251 248 254 262 290 256 245 239 238 245 253 255 254 260 243 249 244 249 261 297 65 87 100 89 77 68 60 55 53 275 268 265 257 228 224 224 230 227 227 232 227 226 226 224
252 253 254 266 274 262 262 257 246 246 256 262 267 265 264 260 257 249 239 233 198 133 129 138 71 2 1 9 10 308 283 281 271 255 245 246 239 229 232 232 229 227 230 234
247 251 252 254 251 256 259 257 248 249 253 255 260 263 266 263 250 238 226 210 204 205 239 279 305 314 323 335 316 270 267 282 277 267 266 265 255 244 238 239 238 235 236 240
225 241 253 256 255 260 254 250 241 240 241 246 254 263 250 242 232 232 221 210 217 234 258 281 302 311 311 296 272 268 278 261 247 258 262 266 257 252 251 242 238 239 237 238
235 240 247 260 253 249 259 173 238 242 246 249 260 265 247 241 234 232 219 217 228 253 278 295 307 310 306 295 268 238 237 243 243 257 268 272 275 269 260 254 250 247 244 238
236 231 238 246 254 258 241 222 226 240 252 248 255 257 248 230 219 225 216 223 232 258 289 296 303 302 299 292 270 246 238 243 248 260 269 274 271 267 266 266 265 262 258 252
209 230 238 239 251 256 237 162 223 242 247 234 245 247 232 216 236 234 180 210 237 261 296 317 314 313 308 298 263 245 242 241 249 261 269 274 271 260 261 266 270 272 266 262
200 217 232 241 247 255 277 167 188 227 276 126 239 244 229 235 267 296 191 233 249 266 294 305 302 303 306 294 265 258 259 260 271 275 274 272 269 264 261 265 266 268 268 269
226 225 228 233 240 243 129 173 215 273 352 276 264 259 247 257 281 277 260 261 255 260 274 283 286 293 298 287 268 265 272 282 282 280 278 278 278 277 272 266 266 265 264 265
228 239 245 238 253 310 189 224 268 290 271 268 268 262 250 254 267 273 270 269 271 270 275 277 280 287 288 281 274 270 281 285 277 270 269 273 277 277 278 271 263 264 262 262
230 243 242 249 252 254 252 253 258 263 269 273 268 258 247 250 258 263 269 272 274 273 272 272 273 276 279 279 276 277 278 272 264 262 267 270 272 278 282 279 269 261 258 259
248 224 241 249 258 260 247 244 254 260 266 268 269 262 258 259 265 270 274 276 275 274 272 268 267 269 269 269 273 276 276 264 259 260 263 266 269 274 278 276 273 264 265 269
230 231 244 259 261 259 261 260 256 254 258 264 266 271 275 270 266 270 274 275 272 272 273 270 270 269 267 264 268 271 267 259 258 262 265 267 267 268 267 271 273 253 255 273
Height
1525 1524 1524 1524 1524 1525 1525 1528 1529 1528 1527 1529 1528 1528 1528 1531 1532 1532 1532 1533 1534 1536 1537 1539 1540 1541 1543 1544 1545 1546 1547 1548 1548 1549 1550 1551 1552 1553 1553 1554 1554 1555 1555 1556
1524 1525 1524 1525 1526 1527 1527 1529 1528 1527 1527 1528 1527 1527 1526 1528 1529 1530 1531 1532 1533 1534 1535 1537 1538 1539 1541 1542 1543 1544 1545 1547 1547 1548 1549 1550 1551 1552 1553 1553 1553 1554 1555 1555
1524 1524 1525 1526 1527 1528 1527 1528 1528 1529 1528 1526 1527 1526 1524 1525 1528 1529 1530 1530 1531 1532 1533 1535 1536 1538 1539 1540 1541 1543 1544 1545 1546 1547 1549 1550 1551 1551 1552 1553 1553 1554 1554 1555
1523 1524 1525 1525 1526 1526 1528 1525 1527 1528 1529 1528 1528 1530 1521 1521 1524 1526 1527 1528 1529 1530 1531 1533 1534 1536 1537 1538 1540 1541 1542 1544 1545 1546 1547 1549 1550 1550 1551 1552 1552 1553 1554 1554
1524 1524 1525 1525 1525 1525 1526 1526 1526 1526 1526 1527 1524 1528 1521 1520 1522 1523 1525 1527 1528 1529 1530 1531 1532 1534 1535 1537 1538 1539 1540 1542 1543 1545 1546 1547 1548 1549 1550 1551 1552 1552 1553 1553
1523 1525 1525 1524 1524 1525 1526 1527 1526 1524 1524 1531 1524 1526 1524 1519 1521 1521 1524 1526 1527 1528 1529 1530 1531 1532 1533 1534 1535 1537 1538 1539 1541 1543 1544 1545 1547 1548 1549 1549 1550 1551 1552 1552
1524 1523 1524 1525 1525 1525 1525 1527 1532 1532 1531 1528 1522 1525 1524 1520 1521 1523 1524 1525 1526 1527 1528 1529 1530 1530 1531 1532 1533 1535 1536 1537 1539 1541 1542 1544 1545 1546 1547 1548 1549 1549 1550 1550
1526 1526 1523 1523 1523 1523 1523 1524 1533 1537 1534 1526 1524 1525 1521 1521 1523 1524 1525 1525 1526 1527 1527 1528 1528 1529 1530 1531 1532 1533 1534 1535 1537 1539 1540 1542 1543 1544 1545 1546 1547 1547 1548 1548
1523 1525 1522 1523 1523 1522 1523 1522 1521 1525 1525 1529 1523 1520 1520 1521 1523 1524 1525 1526 1526 1527 1527 1528 1528 1529 1529 1530 1530 1532 1533 1534 1535 1537 1538 1540 1541 1542 1543 1544 1545 1546 1546 1547
1521 1524 1521 1523 1524 1524 1522 1520 1524 1527 1533 1533 1526 1521 1520 1521 1522 1523 1524 1526 1527 1527 1527 1527 1528 1528 1529 1529 1530 1531 1532 1533 1534 1535 1536 1537 1539 1540 1541 1542 1543 1543 1544 1544
1522 1522 1522 1522 1522 1522 1523 1523 1522 1522 1523 1528 1529 1524 1516 1519 1521 1523 1524 1526 1527 1527 1527 1527 1528 1528 1528 1529 1529 1530 1531 1532 1533 1533 1534 1535 1536 1537 1538 1539 1540 1540 1541 1541
1523 1521 1521 1520 1521 1522 1520 1519 1520 1525 1524 1523 1525 1525 1518 1520 1522 1523 1525 1526 1527 1527 1527 1527 1527 1528 1528 1528 1528 1529 1529 1530 1531 1531 1532 1533 1534 1534 1535 1536 1537 1537 1538 1538
1524 1522 1524 1523 1525 1523 1521 1521 1520 1520 1520 1522 1526 1524 1519 1521 1522 1524 1525 1526 1527 1527 1527 1527 1527 1527 1527 1527 1527 1527 1528 1528 1529 1529 1530 1531 1531 1532 1532 1533 1534 1534 1535 1536
1525 1520 1522 1525 1519 1519 1521 1522 1522 1521 1521 1520 1519 1518 1518 1519 1521 1523 1524 1525 1526 1526 1526 1526 1526 1526 1526 1526 1526 1526 1526 1527 1527 1527 1528 1528 1529 1529 1530 1530 1531 1532 1532 1532
1524 1520 1518 1519 1520 1520 1520 1521 1521 1520 1517 1518 1515 1516 1515 1517 1520 1522 1523 1524 1525 1525 1525 1525 1525 1525 1525 1524 1524 1524 1525 1525 1525 1525 1526 1526 1526 1527 1527 1527 1528 1528 1529 1529
1522 1520 1519 1520 1520 1520 1520 1519 1519 1519 1517 1516 1515 1515 1515 1518 1520 1521 1522 1523 1523 1524 1524 1524 1524 1524 1523 1523 1523 1523 1523 1523 1523 1523 1524 1524 1524 1524 1524 1524 1525 1525 1525 1526
1521 1520 1520 1518 1517 1519 1517 1513 1515 1515 1514 1514 1514 1513 1514 1516 1518 1519 1520 1521 1522 1522 1523 1523 1522 1522 1521 1521 1521 1521 1521 1521 1521 1521 1521 1521 1521 1521 1521 1521 1522 1522 1522 1523
1520 1519 1519 1517 1518 1522 1512 1511 1512 1512 1512 1512 1512 1513 1514 1515 1517 1518 1519 1520 1520 1521 1521 1521 1521 1520 1519 1519 1519 1519 1519 1519 1519 1518 1519 1519 1518 1518 1518 1518 1519 1519 1519 1519
1520 1519 1518 1517 1516 1511 1510 1511 1512 1512 1511 1511 1511 1512 1513 1515 1515 1515 1516 1517 1519 1519 1519 1519 1518 1518 1517 1516 1516 1516 1516 1516 1516 1516 1516 1516 1515 1515 1515 1515 1515 1516 1516 1516
1521 1519 1517 1517 1518 1514 1508 1509 1511 1513 1509 1509 1510 1511 1512 1513 1511 1511 1514 1515 1516 1516 1516 1516 1516 1515 1514 1514 1514 1514 1513 1513 1513 1513 1513 1513 1512 1512 1512 1512 1512 1512 1512 1512
1518 1518 1517 1514 1512 1505 1507 1510 1512 1514 1508 1508 1509 1509 1510 1510 1510 1511 1512 1513 1513 1513 1514 1513 1513 1513 1512 1511 1511 1511 1511 1511 1510 1510 1510 1510 1509 1509 1509 1509 1508 1508 1509 1508
1511 1513 1512 1512 1512 1509 1508 1509 1509 1507 1507 1508 1508 1509 1509 1509 1509 1509 1510 1510 1510 1511 1511 1510 1510 1510 1509 1509 1509 1508 1508 1508 1507 1507 1506 1506 1506 1506 1506 1505 1505 1505 1505 1504
1509 1508 1506 1507 1507 1506 1507 1507 1508 1508 1508 1507 1507 1508 1508 1508 1508 1508 1508 1508 1508 1508 1508 1507 1507 1507 1506 1506 1506 1505 1505 1504 1504 1504 1503 1503 1503 1503 1502 1502 1501 1501 1501 1500
1507 1510 1508 1506 1503 1505 1506 1506 1506 1506 1506 1506 1506 1506 1506 1506 1506 1506 1506 1505 1505 1505 1505 1504 1504 1504 1504 1503 1502 1502 1501 1501 1501 1500 1500 1500 1500 1499 1499 1498 1498 1497 1497 1496
1506 1508 1505 1502 1502 1503 1503 1504 1504 1504 1504 1504 1504 1504 1504 1503 1503 1503 1503 1502 1502 1502 1502 1501 1501 1500 1500 1500 1499 1499 1498 1498 1498 1498 1497 1497 1496 1496 1495 1495 1494 1493 1493 1493
1504 1504 1503 1499 1500 1500 1500 1500 1501 1501 1501 1501 1501 1501 1501 1500 1500 1500 1499 1499 1499 1498 1498 1498 1497 1497 1496 1496 1495 1495 1495 1494 1494 1494 1494 1493 1493 1492 1491 1491 1490 1489 1489 1488